You are listening to:
LHBP Info - Budapest, Hungary

LHBP 181300Z 34009KT 240V030 9999 BKN047 14/03 Q1024 NOSIG

If stream doesn't start automatically press the play button
If stream stops then reload player then press play